Theta_e
297 296 296 295 295 295 294 294 294 293 292 292 292 291 290 289 289 289 289 289 289 289 289 288 288 289 289 289 290 290 291 291 291 291 291 290 289 289 289 289 289 290 291
296 296 295 294 294 294 294 294 293 292 292 292 292 291 290 289 289 289 289 289 288 288 287 287 288 289 289 289 289 290 290 290 290 290 290 289 289 289 289 289 289 290 290
295 295 294 294 294 294 294 294 293 292 292 292 292 291 290 289 289 289 289 288 288 287 287 287 288 288 288 288 288 288 288 289 289 289 289 289 289 289 290 290 289 290 291
294 294 294 294 294 294 294 294 293 292 292 292 292 291 291 289 289 288 289 289 288 288 287 286 286 287 287 287 287 287 288 288 289 289 289 289 290 290 290 289 289 290 291
294 294 294 294 294 294 293 293 292 292 292 292 291 291 291 289 288 288 289 289 289 289 288 287 287 287 287 286 286 287 287 288 289 289 290 290 291 290 288 287 287 288 291
294 293 294 294 293 293 293 292 292 291 291 291 290 289 288 287 287 287 287 288 288 287 287 287 287 286 286 286 286 286 287 289 289 289 289 290 289 287 286 285 286 289 291
293 293 294 293 293 293 292 291 291 291 290 291 289 288 286 284 283 284 286 286 286 286 286 286 286 286 285 286 286 286 287 288 287 285 286 286 285 285 283 284 286 285 288
293 292 292 292 292 292 291 291 291 291 290 290 289 286 284 283 283 283 284 285 285 285 284 285 285 285 285 285 285 285 285 285 285 284 283 283 283 282 281 282 284 286 287
292 292 292 292 291 291 290 291 291 290 289 289 289 286 284 284 282 282 284 285 284 284 284 284 284 284 284 285 284 284 284 285 285 284 284 283 283 282 280 283 286 286 290
292 293 292 293 293 291 291 291 291 290 290 289 288 287 285 284 283 282 283 284 283 282 283 283 284 283 283 284 284 283 284 284 285 285 284 284 283 283 282 282 280 284 288
293 293 292 293 292 292 292 290 290 290 289 288 288 287 285 284 283 282 282 283 283 282 282 282 283 283 284 283 283 282 283 283 284 284 283 283 283 281 281 281 281 279 284
293 292 291 291 290 290 290 290 289 289 287 286 285 285 286 285 284 283 282 282 283 282 282 281 282 282 284 285 285 285 285 284 284 284 283 282 282 281 282 281 281 281 281
292 291 290 289 289 289 288 287 286 287 286 284 284 284 285 286 284 284 283 282 282 282 282 281 280 281 282 283 284 285 284 284 283 283 281 279 277 280 282 282 281 281 281
290 289 287 287 287 287 287 287 286 285 284 285 284 284 285 286 285 285 284 283 282 282 282 280 279 279 280 281 283 282 283 283 282 279 279 278 281 281 279 280 281 281 281
287 286 286 286 285 285 286 287 287 288 288 287 287 286 286 285 287 287 286 285 284 283 282 280 279 278 278 279 280 281 281 281 280 280 281 278 280 281 281 281 280 280 280
286 285 285 285 284 285 285 285 286 286 288 288 288 288 288 288 288 288 287 287 285 283 281 281 281 280 279 279 279 280 280 281 281 280 280 277 278 280 279 280 279 280 279
286 285 285 285 284 284 284 285 286 286 286 286 287 287 287 288 288 287 286 286 285 282 282 282 282 281 280 278 278 278 279 280 280 279 278 276 276 278 279 279 278 277 276
284 285 285 285 285 285 285 285 285 287 286 286 286 286 286 285 285 286 286 285 284 283 283 283 283 282 281 279 278 277 277 277 277 276 275 275 275 276 276 277 278 278 277
281 282 284 284 284 284 284 284 284 284 284 285 284 284 285 286 286 286 285 286 286 286 284 283 283 283 282 279 278 277 276 276 275 275 275 275 274 275 275 275 275 275 275
280 281 281 281 282 282 282 282 282 283 283 283 283 283 283 283 285 286 286 286 286 285 284 283 283 283 282 279 278 277 275 275 275 274 274 274 274 274 274 274 274 274 274
280 280 281 281 282 282 282 282 282 282 282 282 282 281 281 282 284 286 286 286 286 285 283 282 283 283 282 279 278 277 276 276 275 275 275 275 274 273 273 273 273 273 273
279 279 279 280 279 279 279 279 279 279 279 279 278 278 279 281 281 282 284 285 285 285 284 284 283 283 282 280 280 279 278 277 277 277 277 276 276 275 274 273 272 272 272
276 275 274 274 273 273 273 272 272 273 272 272 272 273 274 274 276 277 278 279 280 281 281 282 282 282 281 280 280 279 279 278 278 277 276 276 276 275 275 274 273 272 272
271 270 270 269 269 269 270 269 269 269 269 270 270 270 270 270 271 271 273 274 276 277 277 278 278 279 279 278 277 277 277 277 276 276 276 275 275 274 273 273 273 273 273
269 268 268 267 267 268 268 267 267 267 267 267 268 268 268 268 269 270 271 272 272 273 274 274 275 275 275 275 275 275 275 275 275 275 274 274 273 273 273 272 271 271 271
268 267 266 267 266 266 266 265 265 265 265 265 266 266 266 267 268 269 269 270 270 271 271 271 271 272 272 272 272 273 273 273 273 273 272 272 272 271 271 271 271 270 270
Wind_Speed
35 33 31 28 26 23 21 19 17 15 14 11 9 7 7 5 5 3 2 1 1 2 3 4 5 6 7 8 9 10 11 13 12 22 20 24 28 28 32 31 29 32 36
35 36 32 28 26 25 22 20 18 16 14 12 11 9 8 6 5 4 3 2 0 2 3 3 4 4 7 8 9 11 13 15 18 20 23 25 25 27 28 29 31 30 30
34 35 31 29 29 27 24 22 19 18 15 14 12 10 9 8 7 5 3 2 2 1 3 5 5 6 7 8 9 11 12 14 18 19 22 23 25 26 27 22 25 26 26
32 32 34 34 32 28 25 23 21 19 17 15 13 11 10 9 8 6 3 2 0 1 3 4 4 5 7 9 10 11 14 17 16 17 17 20 20 22 19 23 26 24 27
31 35 37 34 31 28 26 25 22 20 18 16 14 13 11 10 9 7 4 2 1 1 2 2 3 4 6 8 10 12 13 15 15 14 14 15 16 18 18 17 19 23 16
35 36 36 35 32 30 28 27 24 22 20 18 17 14 13 11 11 8 5 4 2 3 2 3 5 5 6 7 9 8 9 10 11 11 12 12 15 16 14 18 16 11 4
36 36 39 36 35 33 31 29 27 25 21 21 19 17 15 13 12 11 8 6 4 4 4 4 4 5 6 9 10 7 6 7 8 10 12 12 14 12 16 17 14 12 7
34 34 37 37 36 35 34 33 29 26 25 23 21 19 17 15 13 11 9 7 5 4 4 4 4 5 5 8 9 8 7 6 9 8 9 11 12 14 13 15 17 14 10
30 33 37 39 37 37 37 35 32 28 26 25 23 21 19 17 15 13 11 9 7 6 5 5 5 5 6 7 7 7 8 6 8 9 10 10 11 10 10 11 5 6 2
33 38 40 42 40 39 39 38 35 31 29 26 23 22 20 19 18 15 14 12 10 8 7 6 6 5 5 5 6 6 7 8 11 10 9 8 9 10 11 8 7 6 4
33 35 39 42 42 42 40 37 35 32 27 26 25 24 22 22 20 17 16 14 12 10 9 7 6 5 4 4 4 4 6 8 8 8 8 8 9 9 11 12 10 6 6
32 33 34 37 36 36 37 38 35 32 29 28 25 24 25 24 23 21 18 17 14 13 11 9 7 6 3 4 3 5 5 5 6 5 5 6 8 9 11 12 12 9 7
28 27 29 30 33 34 33 32 32 33 27 23 24 23 25 26 25 24 22 19 17 16 13 10 10 7 5 5 4 4 3 3 4 3 4 6 8 7 7 8 9 9 10
25 24 25 27 26 29 29 27 23 27 24 22 22 21 21 27 28 25 25 22 19 18 15 13 12 10 9 7 6 4 3 2 1 2 4 7 7 7 4 4 2 4 5
17 19 20 20 23 22 25 27 30 30 33 28 27 24 21 22 32 29 28 27 26 23 18 16 15 14 12 10 8 7 5 4 3 4 4 5 5 6 6 4 5 5 6
12 13 13 14 16 17 18 16 22 22 28 29 27 27 29 28 23 21 26 25 24 23 21 18 17 17 16 13 11 9 9 8 7 6 4 4 4 5 5 6 7 7 8
8 10 11 15 15 16 15 12 13 19 22 24 26 27 26 26 23 22 20 22 25 23 20 19 20 20 18 16 14 13 11 11 9 7 5 3 1 2 3 5 6 5 5
6 7 8 10 11 9 10 11 12 12 12 14 21 21 22 22 19 20 21 18 19 23 24 19 21 19 18 17 16 15 14 12 10 9 7 5 3 2 1 2 4 4 3
3 4 6 7 7 8 9 9 9 8 8 7 8 11 17 20 19 20 19 24 23 24 23 22 21 17 17 17 17 16 15 14 12 10 9 8 7 5 4 4 4 5 4
4 4 6 6 8 7 8 7 6 5 5 5 6 8 8 10 17 19 22 23 22 20 19 21 21 18 17 18 18 17 16 15 13 12 10 9 8 7 6 6 6 5 4
8 9 10 9 8 7 7 6 4 4 3 2 1 3 6 8 10 14 17 21 22 20 18 20 19 19 19 19 18 17 16 15 14 12 11 10 9 8 7 7 6 6 5
11 12 14 13 13 12 11 10 9 8 8 7 5 4 3 4 5 7 6 11 18 21 22 19 19 19 18 19 18 18 17 15 13 13 12 11 9 9 8 7 7 6 6
17 18 19 19 17 18 18 15 13 12 11 10 9 9 9 7 4 2 2 6 8 9 11 13 15 16 15 15 15 15 14 14 12 11 10 10 9 9 9 8 8 8 8
20 19 19 19 18 19 17 16 16 17 14 13 13 13 13 12 12 11 9 6 4 3 6 8 10 11 13 13 13 12 12 11 10 10 10 9 9 10 9 9 8 9 8
25 24 22 19 20 19 18 17 16 16 15 14 14 15 15 15 16 16 15 14 12 10 9 9 9 10 10 10 9 9 9 9 8 9 9 8 9 9 10 9 9 8 9
29 28 26 25 24 20 18 17 16 16 17 16 16 16 15 16 15 15 15 14 14 14 13 12 10 8 7 6 5 5 5 6 6 7 7 7 8 8 9 9 9 9 10
Wind_Direction
183 184 184 183 185 184 182 181 181 181 176 173 166 154 154 171 159 161 183 217 275 287 290 282 273 272 277 284 285 276 274 274 277 296 305 316 319 324 338 345 344 348 350
183 185 185 184 184 185 184 183 185 185 179 176 170 167 169 178 168 167 169 173 243 306 314 305 291 298 295 296 295 293 291 291 287 295 309 319 320 324 327 333 341 347 347
182 184 183 186 188 189 188 186 188 188 184 180 175 178 180 187 179 178 172 168 180 310 286 287 295 303 302 303 303 299 299 299 296 292 300 313 317 334 330 330 336 347 341
182 182 187 191 194 190 189 189 190 191 190 187 180 185 184 197 192 185 178 163 234 305 314 301 302 304 305 308 307 303 305 304 296 290 294 304 310 324 332 332 335 346 350
184 189 195 196 196 192 191 192 193 193 193 191 187 189 191 202 209 201 201 198 203 244 308 340 310 313 311 308 310 309 307 303 296 290 293 300 313 328 336 331 323 327 340
193 195 198 199 196 195 194 194 196 194 194 195 194 196 202 210 221 218 218 219 221 231 249 288 302 313 322 322 315 316 313 318 311 310 307 311 317 324 325 323 322 335 342
196 198 201 201 199 198 197 196 198 197 199 200 200 203 211 215 220 220 221 239 235 249 272 294 306 315 327 333 328 326 306 310 312 316 311 316 314 321 318 317 319 321 308
196 196 200 200 200 199 199 200 200 200 203 203 204 207 213 217 219 221 221 224 247 252 269 286 296 314 327 344 334 338 336 330 329 324 311 309 307 310 307 299 300 309 307
193 195 198 201 198 202 201 202 204 202 203 206 208 209 214 217 219 218 214 215 227 243 259 274 288 302 316 336 333 338 337 325 338 333 329 324 325 323 326 328 301 314 291
196 198 202 204 204 203 204 205 205 206 208 208 210 215 217 219 220 217 213 215 217 227 244 258 284 285 309 323 325 335 329 332 338 343 342 347 356 2 3 7 341 314 316
198 199 203 206 205 209 208 206 208 207 209 208 212 217 219 220 221 220 218 218 221 225 234 244 257 278 290 311 306 319 311 327 335 339 339 354 9 10 20 18 14 359 335
202 199 201 204 202 204 204 207 209 208 209 212 214 219 224 225 223 223 224 225 225 227 232 240 247 261 270 292 316 316 328 338 342 341 357 1 8 12 22 27 27 31 36
195 195 198 200 200 201 198 199 198 202 204 206 210 216 223 225 226 224 227 226 227 229 231 236 243 251 255 264 279 287 320 338 343 344 359 349 341 340 10 27 30 36 39
189 195 194 194 194 199 197 200 203 195 197 204 208 215 220 228 228 225 226 225 223 226 231 232 235 240 242 245 250 261 281 292 293 318 340 349 357 352 339 350 343 9 44
185 186 189 188 192 195 200 197 206 216 211 206 217 217 211 223 233 228 227 223 224 224 221 222 227 232 236 235 234 241 243 238 243 282 322 342 0 15 23 37 50 59 76
167 176 180 177 186 192 194 199 216 223 228 227 232 238 241 245 249 246 239 234 232 222 211 221 227 232 232 227 222 226 232 232 241 257 288 323 2 29 46 58 74 77 82
149 162 172 182 182 183 185 188 210 232 236 240 240 244 249 252 248 249 239 232 224 207 215 222 227 230 229 227 225 223 230 227 229 238 245 269 326 63 71 86 93 89 85
133 152 167 177 177 179 188 202 210 212 216 229 238 238 238 239 243 237 233 219 198 205 222 223 227 228 227 225 223 224 226 225 220 226 231 234 226 209 178 149 140 145 137
113 161 174 179 174 179 190 196 204 209 219 230 245 241 237 237 234 231 222 209 205 207 218 228 231 231 231 227 224 222 223 221 220 220 224 225 223 213 216 198 179 167 158
80 132 149 152 157 164 173 173 182 193 207 222 232 246 246 231 221 221 215 214 214 216 220 232 233 232 232 227 222 218 217 217 216 218 222 224 224 220 224 219 200 189 192
89 101 116 118 122 128 132 134 140 150 166 192 239 262 252 231 229 225 215 211 219 223 230 240 239 235 232 224 219 217 217 217 217 218 220 224 225 224 226 222 218 207 200
92 90 90 87 92 89 86 86 82 79 66 56 35 8 340 231 244 245 237 222 219 228 238 247 238 232 228 223 219 219 219 218 218 217 219 222 223 224 224 221 218 214 208
94 93 90 87 86 86 82 74 70 68 63 57 50 44 45 47 40 13 292 265 261 256 250 241 231 225 223 224 222 222 217 215 214 211 211 215 220 224 222 221 219 215 215
92 87 85 82 81 78 75 74 70 69 69 64 60 57 54 53 55 56 60 70 100 158 181 191 200 207 208 203 205 205 206 210 214 215 215 218 223 228 228 225 224 220 220
96 91 86 82 80 79 79 76 74 71 68 66 62 61 59 59 61 62 64 69 77 84 93 112 133 149 162 171 177 184 195 204 211 218 220 223 228 230 230 228 222 215 213
93 92 90 89 85 83 81 78 75 73 69 66 64 63 64 64 65 67 69 73 75 80 85 91 99 112 126 137 153 178 194 203 211 212 217 221 225 229 229 229 225 216 214